Time,TemperatureF,DewpointF,PressureIn,WindDirection,WindDirectionDegrees,WindSpeedMPH,WindSpeedGustMPH,Humidity,HourlyPrecipIn,Conditions,Clouds,dailyrainin,SoftwareType,DateUTC
2013-03-26 00:00:00,36.0,34.0,-100.00,WNW,286,1.0,6.0,92,-99.99,,,-99.99,,2013-03-26 04:00:00,
2013-03-26 00:23:00,36.0,34.0,-100.00,WNW,286,1.0,6.0,92,-99.99,,,-99.99,,2013-03-26 04:23:00,
2013-03-26 00:33:00,36.0,34.0,-100.00,WNW,286,1.0,6.0,92,-99.99,,,-99.99,,2013-03-26 04:33:00,
2013-03-26 00:43:00,36.0,34.0,-100.00,WNW,286,1.0,6.0,92,-99.99,,,-99.99,,2013-03-26 04:43:00,
2013-03-26 00:53:00,36.0,34.0,-100.00,WNW,286,1.0,6.0,92,-99.99,,,-99.99,,2013-03-26 04:53:00,
2013-03-26 01:00:00,36.0,34.0,-100.00,West,281,5.0,6.0,91,-99.99,,,-99.99,,2013-03-26 05:00:00,
2013-03-26 01:23:00,36.0,34.0,-100.00,West,281,5.0,6.0,91,-99.99,,,-99.99,,2013-03-26 05:23:00,
2013-03-26 01:32:00,36.0,34.0,-100.00,West,281,5.0,6.0,91,-99.99,,,-99.99,,2013-03-26 05:32:00,
2013-03-26 01:42:00,36.0,34.0,-100.00,West,281,5.0,6.0,91,-99.99,,,-99.99,,2013-03-26 05:42:00,
2013-03-26 01:52:00,36.0,34.0,-100.00,West,281,5.0,6.0,91,-99.99,,,-99.99,,2013-03-26 05:52:00,
2013-03-26 02:00:00,36.0,32.0,-100.00,WNW,282,4.0,9.0,88,-99.99,,,-99.99,,2013-03-26 06:00:00,
2013-03-26 02:22:00,36.0,32.0,-100.00,WNW,282,4.0,9.0,88,-99.99,,,-99.99,,2013-03-26 06:22:00,
2013-03-26 02:32:00,36.0,32.0,-100.00,WNW,282,4.0,9.0,88,-99.99,,,-99.99,,2013-03-26 06:32:00,
2013-03-26 02:43:00,36.0,32.0,-100.00,WNW,282,4.0,9.0,88,-99.99,,,-99.99,,2013-03-26 06:43:00,
2013-03-26 02:53:00,36.0,32.0,-100.00,WNW,282,4.0,9.0,88,-99.99,,,-99.99,,2013-03-26 06:53:00,
2013-03-26 03:00:00,35.0,32.0,-100.00,WNW,292,3.0,6.0,88,-99.99,,,-99.99,,2013-03-26 07:00:00,
2013-03-26 03:22:00,35.0,32.0,-100.00,WNW,292,3.0,6.0,88,-99.99,,,-99.99,,2013-03-26 07:22:00,
2013-03-26 03:33:00,35.0,32.0,-100.00,WNW,292,3.0,6.0,88,-99.99,,,-99.99,,2013-03-26 07:33:00,
2013-03-26 03:43:00,35.0,32.0,-100.00,WNW,292,3.0,6.0,88,-99.99,,,-99.99,,2013-03-26 07:43:00,
2013-03-26 03:53:00,35.0,32.0,-100.00,WNW,292,3.0,6.0,88,-99.99,,,-99.99,,2013-03-26 07:53:00,
2013-03-26 04:00:00,34.0,32.0,-100.00,WNW,288,3.0,8.0,90,-99.99,,,-99.99,,2013-03-26 08:00:00,
2013-03-26 04:32:00,34.0,32.0,-100.00,WNW,288,3.0,8.0,90,-99.99,,,-99.99,,2013-03-26 08:32:00,
2013-03-26 04:42:00,34.0,32.0,-100.00,WNW,288,3.0,8.0,90,-99.99,,,-99.99,,2013-03-26 08:42:00,
2013-03-26 04:52:00,34.0,32.0,-100.00,WNW,288,3.0,8.0,90,-99.99,,,-99.99,,2013-03-26 08:52:00,
2013-03-26 05:00:00,34.0,31.0,-100.00,WNW,302,2.0,6.0,91,-99.99,,,-99.99,,2013-03-26 09:00:00,
2013-03-26 05:22:00,34.0,31.0,-100.00,WNW,302,2.0,6.0,91,-99.99,,,-99.99,,2013-03-26 09:22:00,
2013-03-26 05:33:00,34.0,31.0,-100.00,WNW,302,2.0,6.0,91,-99.99,,,-99.99,,2013-03-26 09:33:00,
2013-03-26 05:43:00,34.0,31.0,-100.00,WNW,302,2.0,6.0,91,-99.99,,,-99.99,,2013-03-26 09:43:00,
2013-03-26 05:52:00,34.0,31.0,-100.00,WNW,302,2.0,6.0,91,-99.99,,,-99.99,,2013-03-26 09:52:00,
2013-03-26 06:00:00,34.0,31.0,-100.00,WNW,292,1.0,5.0,92,-99.99,,,-99.99,,2013-03-26 10:00:00,
2013-03-26 06:23:00,34.0,31.0,-100.00,WNW,292,1.0,5.0,92,-99.99,,,-99.99,,2013-03-26 10:23:00,
2013-03-26 06:33:00,34.0,31.0,-100.00,WNW,292,1.0,5.0,92,-99.99,,,-99.99,,2013-03-26 10:33:00,
2013-03-26 06:43:00,34.0,31.0,-100.00,WNW,292,1.0,5.0,92,-99.99,,,-99.99,,2013-03-26 10:43:00,
2013-03-26 06:53:00,34.0,31.0,-100.00,WNW,292,1.0,5.0,92,-99.99,,,-99.99,,2013-03-26 10:53:00,
2013-03-26 07:00:00,34.0,31.0,-100.00,West,280,2.0,6.0,91,-99.99,,,-99.99,,2013-03-26 11:00:00,
2013-03-26 07:23:00,34.0,31.0,-100.00,West,280,2.0,6.0,91,-99.99,,,-99.99,,2013-03-26 11:23:00,
2013-03-26 07:33:00,34.0,31.0,-100.00,West,280,2.0,6.0,91,-99.99,,,-99.99,,2013-03-26 11:33:00,
2013-03-26 07:43:00,34.0,31.0,-100.00,West,280,2.0,6.0,91,-99.99,,,-99.99,,2013-03-26 11:43:00,
2013-03-26 07:52:00,34.0,31.0,-100.00,West,280,2.0,6.0,91,-99.99,,,-99.99,,2013-03-26 11:52:00,
2013-03-26 08:00:00,36.0,32.0,-100.00,NW,313,3.0,6.0,87,-99.99,,,-99.99,,2013-03-26 12:00:00,
2013-03-26 08:22:00,36.0,32.0,-100.00,NW,313,3.0,6.0,87,-99.99,,,-99.99,,2013-03-26 12:22:00,
2013-03-26 08:32:00,36.0,32.0,-100.00,NW,313,3.0,6.0,87,-99.99,,,-99.99,,2013-03-26 12:32:00,
2013-03-26 08:43:00,36.0,32.0,-100.00,NW,313,3.0,6.0,87,-99.99,,,-99.99,,2013-03-26 12:43:00,
2013-03-26 08:52:00,36.0,32.0,-100.00,NW,313,3.0,6.0,87,-99.99,,,-99.99,,2013-03-26 12:52:00,
2013-03-26 09:00:00,40.0,33.0,-100.00,West,277,4.0,8.0,77,-99.99,,,-99.99,,2013-03-26 13:00:00,
2013-03-26 09:23:00,40.0,33.0,-100.00,West,277,4.0,8.0,77,-99.99,,,-99.99,,2013-03-26 13:23:00,
2013-03-26 09:32:00,40.0,33.0,-100.00,West,277,4.0,8.0,77,-99.99,,,-99.99,,2013-03-26 13:32:00,
2013-03-26 09:42:00,40.0,33.0,-100.00,West,277,4.0,8.0,77,-99.99,,,-99.99,,2013-03-26 13:42:00,
2013-03-26 09:52:00,40.0,33.0,-100.00,West,277,4.0,8.0,77,-99.99,,,-99.99,,2013-03-26 13:52:00,
2013-03-26 10:00:00,43.0,32.0,-100.00,WNW,288,3.0,11.0,64,-99.99,,,-99.99,,2013-03-26 14:00:00,
2013-03-26 10:23:00,43.0,32.0,-100.00,WNW,288,3.0,11.0,64,-99.99,,,-99.99,,2013-03-26 14:23:00,
2013-03-26 10:33:00,43.0,32.0,-100.00,WNW,288,3.0,11.0,64,-99.99,,,-99.99,,2013-03-26 14:33:00,
2013-03-26 10:42:00,43.0,32.0,-100.00,WNW,288,3.0,11.0,64,-99.99,,,-99.99,,2013-03-26 14:42:00,
2013-03-26 10:53:00,43.0,32.0,-100.00,WNW,288,3.0,11.0,64,-99.99,,,-99.99,,2013-03-26 14:53:00,
2013-03-26 11:00:00,46.0,31.0,-100.00,West,276,6.0,15.0,56,-99.99,,,-99.99,,2013-03-26 15:00:00,
2013-03-26 11:33:00,46.0,31.0,-100.00,West,276,6.0,15.0,56,-99.99,,,-99.99,,2013-03-26 15:33:00,
2013-03-26 11:43:00,46.0,31.0,-100.00,West,276,6.0,15.0,56,-99.99,,,-99.99,,2013-03-26 15:43:00,
2013-03-26 11:53:00,46.0,31.0,-100.00,West,276,6.0,15.0,56,-99.99,,,-99.99,,2013-03-26 15:53:00,
2013-03-26 12:00:00,48.0,31.0,-100.00,NNW,329,11.0,16.0,51,-99.99,,,-99.99,,2013-03-26 16:00:00,
2013-03-26 12:23:00,48.0,31.0,-100.00,NNW,329,11.0,16.0,51,-99.99,,,-99.99,,2013-03-26 16:23:00,
2013-03-26 12:33:00,48.0,31.0,-100.00,NNW,329,11.0,16.0,51,-99.99,,,-99.99,,2013-03-26 16:33:00,
2013-03-26 12:43:00,48.0,31.0,-100.00,NNW,329,11.0,16.0,51,-99.99,,,-99.99,,2013-03-26 16:43:00,
2013-03-26 12:54:00,48.0,31.0,-100.00,NNW,329,11.0,16.0,51,-99.99,,,-99.99,,2013-03-26 16:54:00,
2013-03-26 13:00:00,48.0,31.0,-100.00,WNW,303,8.0,18.0,52,-99.99,,,-99.99,,2013-03-26 17:00:00,
2013-03-26 13:33:00,48.0,31.0,-100.00,WNW,303,8.0,18.0,52,-99.99,,,-99.99,,2013-03-26 17:33:00,
2013-03-26 13:42:00,48.0,31.0,-100.00,WNW,303,8.0,18.0,52,-99.99,,,-99.99,,2013-03-26 17:42:00,
2013-03-26 13:53:00,48.0,31.0,-100.00,WNW,303,8.0,18.0,52,-99.99,,,-99.99,,2013-03-26 17:53:00,
2013-03-26 14:00:00,49.0,28.0,-100.00,West,262,7.0,16.0,45,-99.99,,,-99.99,,2013-03-26 18:00:00,
2013-03-26 14:23:00,49.0,28.0,-100.00,West,262,7.0,16.0,45,-99.99,,,-99.99,,2013-03-26 18:23:00,
2013-03-26 14:34:00,49.0,28.0,-100.00,West,262,7.0,16.0,45,-99.99,,,-99.99,,2013-03-26 18:34:00,
2013-03-26 14:42:00,49.0,28.0,-100.00,West,262,7.0,16.0,45,-99.99,,,-99.99,,2013-03-26 18:42:00,
2013-03-26 14:53:00,49.0,28.0,-100.00,West,262,7.0,16.0,45,-99.99,,,-99.99,,2013-03-26 18:53:00,
2013-03-26 15:00:00,49.0,26.0,-100.00,WNW,303,4.0,13.0,40,-99.99,,,-99.99,,2013-03-26 19:00:00,
2013-03-26 15:23:00,49.0,26.0,-100.00,WNW,303,4.0,13.0,40,-99.99,,,-99.99,,2013-03-26 19:23:00,
2013-03-26 15:33:00,49.0,26.0,-100.00,WNW,303,4.0,13.0,40,-99.99,,,-99.99,,2013-03-26 19:33:00,
2013-03-26 15:42:00,49.0,26.0,-100.00,WNW,303,4.0,13.0,40,-99.99,,,-99.99,,2013-03-26 19:42:00,
2013-03-26 15:53:00,49.0,26.0,-100.00,WNW,303,4.0,13.0,40,-99.99,,,-99.99,,2013-03-26 19:53:00,
2013-03-26 16:00:00,49.0,23.0,-100.00,WNW,287,5.0,14.0,35,-99.99,,,-99.99,,2013-03-26 20:00:00,
2013-03-26 16:23:00,49.0,23.0,-100.00,WNW,287,5.0,14.0,35,-99.99,,,-99.99,,2013-03-26 20:23:00,
2013-03-26 16:32:00,49.0,23.0,-100.00,WNW,287,5.0,14.0,35,-99.99,,,-99.99,,2013-03-26 20:32:00,
2013-03-26 16:43:00,49.0,23.0,-100.00,WNW,287,5.0,14.0,35,-99.99,,,-99.99,,2013-03-26 20:43:00,
2013-03-26 16:53:00,49.0,23.0,-100.00,WNW,287,5.0,14.0,35,-99.99,,,-99.99,,2013-03-26 20:53:00,
2013-03-26 17:00:00,48.0,26.0,-100.00,NW,314,10.0,19.0,42,-99.99,,,-99.99,,2013-03-26 21:00:00,
2013-03-26 17:23:00,48.0,26.0,-100.00,NW,314,10.0,19.0,42,-99.99,,,-99.99,,2013-03-26 21:23:00,
2013-03-26 17:33:00,48.0,26.0,-100.00,NW,314,10.0,19.0,42,-99.99,,,-99.99,,2013-03-26 21:33:00,
2013-03-26 17:43:00,48.0,26.0,-100.00,NW,314,10.0,19.0,42,-99.99,,,-99.99,,2013-03-26 21:43:00,
2013-03-26 17:52:00,48.0,26.0,-100.00,NW,314,10.0,19.0,42,-99.99,,,-99.99,,2013-03-26 21:52:00,
2013-03-26 18:00:00,49.0,25.0,-100.00,WNW,302,5.0,14.0,38,-99.99,,,-99.99,,2013-03-26 22:00:00,
2013-03-26 18:23:00,49.0,25.0,-100.00,WNW,302,5.0,14.0,38,-99.99,,,-99.99,,2013-03-26 22:23:00,
2013-03-26 18:33:00,49.0,25.0,-100.00,WNW,302,5.0,14.0,38,-99.99,,,-99.99,,2013-03-26 22:33:00,
2013-03-26 18:43:00,49.0,25.0,-100.00,WNW,302,5.0,14.0,38,-99.99,,,-99.99,,2013-03-26 22:43:00,
2013-03-26 18:52:00,49.0,25.0,-100.00,WNW,302,5.0,14.0,38,-99.99,,,-99.99,,2013-03-26 22:52:00,
2013-03-26 19:00:00,47.0,27.0,-100.00,North,3,3.0,13.0,46,-99.99,,,-99.99,,2013-03-26 23:00:00,
2013-03-26 19:23:00,47.0,27.0,-100.00,North,3,3.0,13.0,46,-99.99,,,-99.99,,2013-03-26 23:23:00,
2013-03-26 19:32:00,47.0,27.0,-100.00,North,3,3.0,13.0,46,-99.99,,,-99.99,,2013-03-26 23:32:00,
2013-03-26 19:43:00,47.0,27.0,-100.00,North,3,3.0,13.0,46,-99.99,,,-99.99,,2013-03-26 23:43:00,
2013-03-26 19:53:00,47.0,27.0,-100.00,North,3,3.0,13.0,46,-99.99,,,-99.99,,2013-03-26 23:53:00,
2013-03-26 20:00:00,46.0,27.0,-100.00,WNW,297,5.0,7.0,48,-99.99,,,-99.99,,2013-03-27 00:00:00,
2013-03-26 20:22:00,46.0,27.0,-100.00,WNW,297,5.0,7.0,48,-99.99,,,-99.99,,2013-03-27 00:22:00,
2013-03-26 20:33:00,46.0,27.0,-100.00,WNW,297,5.0,7.0,48,-99.99,,,-99.99,,2013-03-27 00:33:00,
2013-03-26 20:42:00,46.0,27.0,-100.00,WNW,297,5.0,7.0,48,-99.99,,,-99.99,,2013-03-27 00:42:00,
2013-03-26 20:52:00,46.0,27.0,-100.00,WNW,297,5.0,7.0,48,-99.99,,,-99.99,,2013-03-27 00:52:00,
2013-03-26 21:00:00,45.0,28.0,-100.00,NE,34,0.0,5.0,51,-99.99,,,-99.99,,2013-03-27 01:00:00,
2013-03-26 21:23:00,45.0,28.0,-100.00,NE,34,0.0,5.0,51,-99.99,,,-99.99,,2013-03-27 01:23:00,
2013-03-26 21:33:00,45.0,28.0,-100.00,NE,34,0.0,5.0,51,-99.99,,,-99.99,,2013-03-27 01:33:00,
2013-03-26 21:43:00,45.0,28.0,-100.00,NE,34,0.0,5.0,51,-99.99,,,-99.99,,2013-03-27 01:43:00,
2013-03-26 21:53:00,45.0,28.0,-100.00,NE,34,0.0,5.0,51,-99.99,,,-99.99,,2013-03-27 01:53:00,
2013-03-26 23:00:00,42.0,27.0,-100.00,NW,314,3.0,7.0,54,-99.99,,,-99.99,,2013-03-27 03:00:00,
2013-03-26 23:22:00,42.0,27.0,-100.00,NW,314,3.0,7.0,54,-99.99,,,-99.99,,2013-03-27 03:22:00,
2013-03-26 23:33:00,42.0,27.0,-100.00,NW,314,3.0,7.0,54,-99.99,,,-99.99,,2013-03-27 03:33:00,
2013-03-26 23:43:00,42.0,27.0,-100.00,NW,314,3.0,7.0,54,-99.99,,,-99.99,,2013-03-27 03:43:00,
2013-03-26 23:53:00,42.0,27.0,-100.00,NW,314,3.0,7.0,54,-99.99,,,-99.99,,2013-03-27 03:53:00,